Regional Weather Roundup
Issued by NWS Cleveland, OH

Home | Current Version | Previous Version | Graphics & Text | Print | Product List | Glossary On
Versions: 1 2 3 4 5 6 7 8 9 10 11 12 13 14 15 16 17 18 19 20 21 22 23 24 25 26 27 28 29 30 31 32 33 34 35 36 37 38 39 40 41 42 43 44 45 46 47 48 49 50
000
ASUS41 KCLE 242210
RWRCLE
OHIO REGIONAL WEATHER ROUNDUP
NATIONAL WEATHER SERVICE WILMINGTON, OH
600 PM EDT THU JUL 24 2014

NOTE: "FAIR" INDICATES FEW OR NO CLOUDS BELOW 12,000 FEET WITH NO
SIGNIFICANT WEATHER AND/OR OBSTRUCTIONS TO VISIBILITY.

OHZ001>008-015>018-024>027-034-035-043-044-242300-
   NORTHWEST OHIO

CITY           SKY/WX    TMP DP  RH WIND       PRES   REMARKS
DEFIANCE       PTSUNNY   75  49  39 E6        30.05F
FINDLAY        MOSUNNY   74  49  41 NE9G20    30.05F
TOLEDO EXPRESS PTSUNNY   71  51  49 E6        30.05F
TOLEDO METCALF SUNNY     74  50  42 VRB5      30.06F
LIMA           MOSUNNY   72  52  49 NE6       30.06F
$$

OHZ009>014-019>023-028>033-038-089-242300-
   NORTHEAST OHIO

CITY           SKY/WX    TMP DP  RH WIND       PRES   REMARKS
CLE-HOPKINS    MOSUNNY   70  50  49 NE10      30.07F
CLE-LAKEFRONT  SUNNY     70  51  51 NE8       30.04F
CUY CO. ARPT   MOSUNNY   70  50  49 NE10G20   30.06F
LORAIN-ELYRIA  SUNNY     73  49  42 NE15      30.06F
ASHTABULA      SUNNY     68  48  48 NW7       30.06F
AKRON-CANTON   MOSUNNY   74  50  42 NE13      30.04S
WOOSTER        SUNNY     72  49  44 N13       30.05F
MANSFIELD      MOSUNNY   70  51  51 N14       30.06F
YOUNGSTOWN     MOSUNNY   70  49  47 N12       30.04S
$$

OHZ042-051>053-060>062-070>072-077>081-242300-
  SOUTHWEST OHIO

CITY           SKY/WX    TMP DP  RH WIND       PRES   REMARKS
CINC-COVINGTON MOSUNNY   75  51  43 N10G18    30.03F
CINC-LUNKEN    PTSUNNY   74  54  49 NE12      30.03F
HAMILTON       MOSUNNY   77  55  46 VRB6      30.04F
DAYTON         MOSUNNY   75  53  46 N15       30.06F
WRIGHT-PAT AFB MOSUNNY   74  53  47 N12       30.04F
DAYTON GENERAL MOSUNNY   75  56  51 N9        30.03F
WILMINGTON     MOSUNNY   75  54  47 N7        30.03F
$$

OHZ036-037-039>041-045>050-054>059-063>069-073>076-082>088-242300-
  CENTRAL AND SOUTHEAST OHIO

CITY           SKY/WX    TMP DP  RH WIND       PRES   REMARKS
COLUMBUS       MOSUNNY   76  54  46 N13       30.01F
OSU AIRPORT    MOSUNNY   74  53  48 N15       30.03F
BOLTON FIELD   MOSUNNY   73  55  53 N13G20    30.03F
RICKENBACK AFB MOSUNNY   77  50  37 N13       30.01S
NEWARK         PTSUNNY   75  55  49 NE8G20    30.01F
MARION         SUNNY     71  51  49 NE12      30.06F
LANCASTER      SUNNY     76  56  49 NE7       30.01F
ZANESVILLE     SUNNY     75  54  47 NW9       30.01S
NEW PHILLY     MOSUNNY   72  56  57 N8        30.02S
$$


USA.gov is the U.S. government's official web portal to all federal, state and local government web resources and services.